カタログに戻る

JIAOTONG VDES B

運用中科学PO
NORAD 66914·PAYLOAD·🇨🇳 China
この衛星名は、まだ公式ソースで確認されていません。

打ち上げ Dec 5, 2025 から Jiuquan Satellite Launch Center

Loading…

次のパス (今後24時間)

TLE

最新Source: Space-Track

元期: Sep 14, 2026, 06:19 UTC

1 66914U 25284B   26257.26372238  .00000105  00000-0  68409-4 0  9999
2 66914  80.3995 196.1877 0011951   1.8838 358.2366 13.97341149 39924

AllMySatでJIAOTONG VDES Bをリアルタイム追跡

Download on the App Store